sat.trackr.live / text

‹ back to catalog

STARLINK-3396

NORAD 51129 · 2022-005AB

PAYLOAD ACTIVE UNKNOWN

§ Identity

Operator
Country
US
Launch date
2022-01-19
Launch site
AFETR
Launch vehicle
Mass (kg)
RCS (m²)

Purposes: comms

External: N2YO · Heavens-Above · Gunter

§ Orbital elements

Epoch: 2026-09-20T04:00:03.000096Z

Period
93.85 min
Inclination
53.1602°
Eccentricity
0.0001320
Mean motion
15.34366245 rev/d
Perigee alt
461.9 km
Apogee alt
463.7 km
Semi-major
6,840.9 km
B*
9.9803e-4
RAAN
139.2144°
Arg perigee
79.8823°
Mean anomaly
178.3760°
Rev number
582

§ Raw data

STARLINK-33961 51129U 22005AB  26263.16670139  .00033458  00000+0  99803-3 0  99932 51129  53.1602 139.2144 0001320  79.8823 178.3760 15.34366245  5820

JSON: /api/v1/satellites/51129 · /tle

For live sub-satellite position, see the globe view (requires WebGL).

§ Visibility from observer

Set your observer location to see the next 7 days of passes ≥ 10°. The values pass through the URL so the page stays shareable.

No JS? Fill the form by hand. The geolocation button needs JavaScript.